Wind_Speed
41 42 42 43 43 44 44 43 44 46 48 51 55 57 58 60 61 64 67 71 75 78 80 81 81 84 87 86 86 83 82 80 77 75 70 62 62 60 57 56 55 54 53
44 44 43 44 45 45 44 45 47 49 50 53 57 60 62 65 70 74 77 80 82 86 89 90 92 95 95 98 100 99 95 92 87 82 78 76 68 66 63 60 58 57 56
46 45 46 46 46 46 46 48 50 52 54 57 60 64 68 73 77 81 84 87 91 94 98 102 103 106 108 108 108 108 108 103 97 93 87 83 78 73 69 65 63 60 59
48 48 47 47 47 47 49 51 53 55 58 62 65 69 73 78 83 89 93 97 101 105 108 109 110 111 115 121 122 118 121 120 112 111 103 95 92 82 75 71 68 64 61
48 48 49 48 47 49 51 53 56 59 62 65 69 74 80 85 90 95 100 103 106 111 114 118 121 124 122 116 113 112 115 121 121 122 116 108 101 87 82 76 73 68 64
51 50 50 51 51 53 55 57 60 64 68 72 76 80 86 90 95 100 104 109 116 119 119 108 97 88 82 78 73 72 69 85 82 92 98 104 102 92 87 81 76 72 68
52 52 52 53 54 56 57 61 64 68 72 78 82 86 89 94 99 106 113 119 115 103 84 78 74 68 63 57 55 54 59 64 69 68 88 91 98 93 89 85 78 75 70
53 54 55 56 56 57 60 63 68 72 77 83 89 94 95 96 105 112 118 113 98 79 71 66 62 58 53 47 46 48 51 55 69 66 84 89 90 93 93 89 79 76 73
55 57 57 56 57 60 63 67 72 76 80 86 93 99 103 109 113 113 107 92 83 72 64 60 57 51 45 43 43 44 48 51 57 71 74 77 93 96 95 92 81 69 74
57 57 55 58 59 61 65 69 74 79 84 88 92 100 113 122 122 113 82 74 68 61 58 56 51 47 41 41 39 40 44 50 51 67 71 75 82 100 97 90 87 75 68
56 55 57 59 60 62 67 73 76 81 88 91 96 105 115 115 102 91 80 62 56 48 50 52 45 40 38 35 36 36 40 46 47 56 72 76 81 91 94 96 90 81 68
56 57 60 59 62 66 71 75 80 86 88 94 103 113 114 100 85 81 75 57 45 34 42 42 38 34 35 32 34 35 37 41 44 51 67 76 79 84 94 87 80 87 82
56 59 60 61 66 70 74 78 83 86 91 99 108 112 100 83 77 76 65 48 34 28 33 33 32 31 30 28 31 34 34 35 32 42 57 75 80 83 95 80 88 85 81
58 59 60 64 68 72 76 80 84 88 95 103 110 101 84 74 74 67 55 41 24 22 26 28 29 28 27 24 26 32 32 38 37 38 48 73 79 86 92 81 81 90 73
59 59 62 66 69 73 77 81 84 91 100 107 103 86 73 71 69 57 43 30 15 18 21 29 25 24 26 25 25 29 31 30 28 30 37 60 76 87 94 87 91 82 67
60 61 64 67 70 75 77 80 86 94 102 103 90 73 68 67 63 49 32 20 11 15 20 22 22 23 21 21 25 36 34 27 25 19 36 44 66 79 92 79 86 81 76
61 63 65 68 72 75 77 81 89 97 103 93 77 68 62 62 54 39 24 10 10 16 16 15 18 18 21 19 29 33 22 25 22 26 33 39 53 70 85 79 83 77 73
62 63 66 70 73 74 77 83 92 98 95 81 68 62 56 55 48 31 12 8 13 14 11 14 15 17 16 22 35 32 20 24 29 31 30 32 42 58 74 85 78 82 71
61 64 67 70 71 74 78 85 93 97 84 71 61 57 51 49 38 17 7 9 12 10 9 12 14 16 14 29 31 23 21 22 25 33 31 27 27 50 65 67 79 81 74
61 65 67 69 70 74 79 87 91 90 75 61 54 53 45 42 26 12 7 10 9 8 9 11 15 12 20 39 33 27 13 28 27 25 42 22 21 43 52 60 82 74 73
63 63 66 67 70 74 81 88 86 78 69 52 48 47 42 36 21 12 9 11 8 8 9 11 13 12 26 35 33 30 18 18 27 19 17 24 32 51 56 59 60 74 76
61 62 64 67 71 76 82 87 80 67 63 48 41 44 41 33 20 12 12 12 8 7 8 9 11 16 27 36 30 24 22 17 14 28 21 25 28 29 41 48 55 69 78
60 62 64 67 72 77 83 83 70 60 54 45 39 42 39 31 20 12 16 14 10 7 7 8 7 17 35 35 30 28 27 30 14 22 24 21 29 34 31 46 56 53 61
59 61 64 67 73 79 84 77 64 55 43 39 40 37 35 31 22 14 18 18 13 8 6 7 7 23 35 35 34 31 29 24 25 20 17 25 35 36 35 42 55 56 55
59 61 64 68 73 80 81 69 59 54 35 33 37 36 30 31 22 16 19 21 18 12 7 5 5 24 37 34 34 35 32 30 22 21 17 29 32 29 28 34 54 56 61
58 61 65 69 74 81 74 63 56 53 31 28 33 35 32 26 23 16 18 25 22 16 11 7 5 19 36 36 41 38 32 31 21 12 25 30 24 24 24 37 50 56 55
Wind_Direction
302 300 297 294 291 287 283 279 278 281 280 278 277 279 280 280 278 278 280 281 281 281 282 280 279 278 278 275 271 268 267 266 260 258 260 256 248 243 243 243 239 235 234
301 299 296 292 291 288 284 283 282 282 280 278 279 281 283 283 284 285 285 287 287 284 284 281 278 278 275 276 274 269 266 264 260 254 256 257 252 243 240 240 238 235 233
300 298 296 294 293 289 286 285 285 283 282 282 283 284 286 289 290 290 290 289 287 287 286 284 280 280 279 275 270 268 269 265 257 255 252 251 251 248 238 237 237 234 233
300 298 297 296 294 291 289 289 288 286 285 286 287 289 291 293 294 295 295 293 293 292 289 288 286 281 279 277 271 266 264 263 259 256 254 249 250 247 237 233 234 232 232
301 300 299 298 296 295 294 293 291 290 290 291 293 296 297 298 299 299 298 297 296 293 291 287 285 283 282 277 272 267 261 257 255 253 250 249 247 241 233 231 230 230 230
304 303 301 300 299 299 297 296 296 296 297 298 299 299 300 301 301 300 300 298 297 296 293 290 286 280 275 271 267 261 254 247 243 241 240 240 240 236 230 228 226 228 228
304 304 303 302 302 301 300 299 299 300 302 303 302 302 303 303 303 303 302 301 298 294 288 283 281 278 275 274 266 258 250 241 228 221 221 225 231 230 225 224 223 225 227
304 304 305 304 304 303 301 301 302 304 306 306 305 305 304 303 304 306 304 301 296 288 281 279 275 274 273 264 261 255 244 242 229 218 215 215 218 223 218 219 219 222 225
304 305 306 306 305 305 304 304 305 307 307 307 308 309 309 309 306 308 305 299 289 281 275 270 270 271 268 263 259 254 243 235 230 220 217 212 210 212 211 215 217 219 227
305 306 307 307 307 306 306 306 307 308 309 309 310 313 316 316 313 310 307 302 289 278 264 261 264 266 261 257 255 253 243 234 228 222 218 211 213 207 207 210 213 207 206
306 306 308 308 307 306 307 308 309 310 310 313 315 317 317 316 313 312 313 305 292 276 256 253 257 260 255 251 253 252 243 235 227 224 218 213 208 210 206 205 212 211 209
307 308 309 308 307 308 309 310 312 313 315 318 321 321 320 317 314 313 312 308 295 265 248 247 249 252 247 245 252 248 241 233 225 223 220 214 206 208 206 206 209 214 210
307 309 309 308 309 310 312 313 314 317 319 322 323 323 321 318 317 317 313 309 294 255 237 240 241 244 239 243 253 247 238 229 218 222 222 216 209 206 205 205 205 206 208
308 309 309 310 311 312 314 316 318 321 324 325 326 324 321 320 321 319 313 308 286 236 228 231 240 242 239 242 250 245 233 209 217 213 220 216 212 206 202 200 200 206 201
308 309 310 311 313 314 317 319 322 326 328 328 326 324 322 322 324 320 314 305 274 220 213 231 241 240 244 247 251 230 201 205 203 217 219 217 214 209 207 202 204 207 208
308 310 311 313 314 317 320 323 325 328 330 329 327 326 324 324 326 320 312 297 246 205 203 240 239 245 243 252 234 207 198 211 214 196 215 213 215 213 209 204 204 207 205
308 309 312 314 316 320 323 325 327 329 330 329 328 327 326 326 328 322 309 270 221 201 209 248 246 244 251 243 210 192 203 227 203 216 210 207 211 213 213 204 204 205 204
308 311 314 315 318 322 325 328 330 332 331 331 330 329 327 329 329 321 293 236 205 208 231 253 251 257 259 213 203 190 219 205 214 212 199 198 205 211 214 214 206 205 206
310 313 314 318 321 325 328 330 332 332 331 331 331 331 328 331 330 317 270 210 203 229 242 252 261 275 229 202 178 176 193 213 202 200 189 172 190 209 213 216 208 209 209
311 313 317 320 323 327 330 331 334 331 333 332 332 334 331 334 330 310 253 201 216 242 257 247 280 271 205 189 184 173 165 206 213 192 187 223 202 195 206 215 211 213 214
311 315 319 322 326 328 331 333 333 330 334 332 333 335 334 335 326 304 226 212 228 251 257 263 287 236 197 198 192 202 176 175 176 180 203 216 203 182 199 214 214 212 209
313 318 320 324 327 330 333 334 332 332 333 330 336 337 337 335 323 292 222 223 233 256 260 276 287 203 194 195 195 195 179 170 173 176 183 197 236 173 190 202 202 211 213
315 320 322 326 329 331 335 333 332 334 330 328 335 336 339 334 320 280 226 227 230 251 265 287 270 197 193 192 191 184 169 188 177 163 180 166 186 193 196 190 198 204 211
317 320 323 327 330 333 336 331 333 335 324 324 327 333 336 336 323 281 231 227 229 235 268 280 268 195 196 189 192 191 175 143 132 140 153 156 171 173 185 196 185 192 200
318 320 324 328 331 335 334 331 333 335 317 319 324 332 331 333 323 291 238 227 227 224 237 265 256 198 196 196 191 197 198 182 121 149 129 152 161 168 181 183 182 181 195
318 321 325 328 332 336 333 331 332 333 316 316 326 331 334 329 324 295 248 227 225 220 222 240 248 202 199 199 196 206 206 208 182 175 142 127 153 162 171 169 174 173 183
Height
5767 5764 5760 5757 5753 5750 5748 5746 5744 5742 5739 5736 5732 5730 5727 5723 5720 5716 5714 5710 5707 5704 5701 5699 5696 5695 5694 5694 5697 5701 5703 5709 5715 5719 5724 5729 5734 5738 5742 5747 5753 5757 5761
5759 5755 5751 5747 5743 5740 5737 5735 5733 5730 5726 5723 5720 5715 5711 5707 5702 5696 5691 5687 5683 5678 5674 5672 5670 5667 5667 5666 5665 5667 5675 5681 5688 5697 5703 5711 5717 5723 5727 5733 5739 5744 5749
5749 5745 5741 5737 5734 5730 5727 5724 5720 5717 5714 5709 5705 5700 5695 5688 5680 5674 5668 5663 5657 5652 5646 5641 5637 5634 5632 5632 5633 5633 5635 5645 5657 5666 5679 5687 5696 5706 5711 5717 5724 5730 5736
5739 5735 5731 5726 5723 5719 5715 5712 5707 5704 5699 5693 5689 5682 5674 5666 5657 5647 5640 5631 5622 5615 5607 5601 5597 5591 5588 5586 5587 5591 5596 5603 5616 5630 5646 5661 5673 5684 5693 5700 5707 5715 5722
5728 5724 5720 5716 5712 5707 5703 5698 5693 5687 5682 5676 5669 5662 5652 5642 5631 5620 5610 5600 5588 5577 5569 5563 5555 5546 5537 5532 5530 5535 5544 5553 5568 5587 5605 5628 5646 5660 5672 5682 5690 5698 5706
5717 5713 5708 5704 5699 5694 5688 5683 5677 5670 5662 5655 5648 5639 5630 5619 5606 5592 5581 5568 5553 5536 5521 5510 5505 5500 5495 5492 5492 5495 5502 5511 5524 5544 5567 5589 5614 5634 5649 5662 5672 5682 5691
5706 5701 5696 5690 5685 5679 5674 5667 5660 5652 5643 5632 5624 5617 5609 5596 5579 5563 5545 5529 5511 5495 5486 5477 5471 5471 5470 5470 5470 5472 5476 5483 5495 5512 5534 5555 5581 5606 5625 5642 5654 5665 5675
5694 5689 5683 5677 5670 5665 5658 5650 5641 5633 5623 5609 5597 5587 5583 5582 5557 5536 5509 5491 5473 5465 5458 5455 5450 5450 5451 5453 5454 5454 5457 5464 5475 5488 5505 5527 5551 5578 5601 5621 5636 5648 5659
5683 5677 5670 5663 5656 5649 5642 5633 5624 5614 5604 5591 5573 5553 5543 5532 5519 5514 5481 5459 5438 5434 5433 5431 5431 5433 5435 5436 5438 5439 5442 5447 5456 5469 5482 5504 5525 5552 5577 5601 5619 5632 5643
5671 5664 5657 5650 5642 5635 5627 5618 5608 5597 5583 5572 5556 5533 5506 5476 5454 5448 5454 5427 5409 5408 5409 5410 5414 5417 5420 5421 5423 5425 5429 5433 5442 5452 5465 5482 5505 5527 5554 5578 5596 5611 5620
5658 5651 5644 5637 5629 5621 5612 5602 5591 5578 5563 5549 5532 5513 5489 5458 5428 5405 5404 5409 5389 5386 5387 5392 5398 5402 5406 5409 5411 5414 5417 5422 5429 5439 5453 5466 5485 5508 5533 5556 5573 5587 5606
5646 5639 5632 5624 5616 5608 5597 5586 5574 5560 5544 5527 5506 5482 5456 5432 5413 5393 5381 5376 5368 5370 5370 5377 5385 5390 5393 5397 5401 5403 5407 5411 5419 5428 5439 5451 5470 5491 5515 5538 5560 5575 5594
5634 5627 5620 5612 5603 5593 5582 5571 5557 5542 5525 5505 5482 5458 5433 5412 5394 5377 5363 5358 5354 5355 5361 5368 5374 5379 5383 5388 5392 5395 5399 5404 5411 5418 5429 5444 5459 5478 5500 5521 5543 5559 5577
5623 5615 5607 5599 5589 5578 5567 5555 5540 5524 5506 5484 5461 5436 5415 5398 5381 5365 5352 5344 5345 5348 5355 5361 5365 5371 5376 5381 5383 5384 5391 5398 5403 5410 5419 5431 5448 5465 5486 5506 5528 5547 5565
5610 5603 5595 5586 5575 5563 5551 5539 5523 5506 5487 5464 5441 5420 5401 5386 5370 5355 5344 5338 5338 5345 5353 5354 5361 5365 5370 5374 5376 5379 5385 5391 5398 5405 5414 5424 5438 5456 5474 5494 5513 5531 5548
5599 5591 5582 5573 5562 5549 5536 5523 5507 5489 5469 5446 5425 5406 5390 5376 5361 5347 5340 5337 5338 5344 5351 5352 5356 5360 5364 5367 5370 5374 5381 5389 5394 5397 5408 5418 5432 5447 5464 5485 5502 5521 5537
5587 5579 5570 5560 5548 5535 5522 5508 5491 5473 5452 5431 5411 5396 5382 5368 5354 5343 5337 5337 5339 5344 5350 5350 5354 5357 5359 5362 5365 5371 5380 5384 5389 5397 5405 5413 5426 5441 5457 5476 5493 5512 5529
5575 5567 5557 5547 5535 5522 5508 5493 5476 5456 5438 5419 5403 5389 5376 5362 5349 5341 5337 5338 5341 5345 5348 5349 5352 5354 5355 5359 5364 5372 5377 5383 5388 5394 5401 5410 5422 5435 5453 5468 5486 5504 5521
5563 5554 5544 5534 5522 5509 5495 5479 5462 5443 5426 5409 5395 5384 5371 5359 5347 5341 5340 5341 5344 5346 5348 5349 5350 5350 5353 5357 5364 5370 5377 5384 5387 5392 5400 5410 5421 5433 5448 5461 5478 5494 5511
5552 5542 5532 5521 5509 5496 5482 5466 5448 5431 5416 5402 5390 5379 5368 5357 5348 5344 5343 5344 5346 5347 5348 5349 5348 5348 5352 5359 5365 5370 5375 5384 5389 5395 5401 5409 5418 5431 5443 5455 5472 5487 5502
5539 5530 5520 5508 5496 5484 5470 5453 5437 5421 5409 5398 5387 5376 5365 5356 5349 5346 5345 5346 5347 5348 5348 5349 5347 5346 5351 5358 5364 5370 5376 5384 5388 5395 5401 5408 5415 5423 5438 5448 5462 5480 5495
5527 5518 5508 5497 5485 5472 5457 5439 5424 5411 5400 5392 5384 5373 5364 5356 5350 5347 5347 5347 5348 5349 5348 5349 5347 5347 5352 5358 5365 5369 5374 5381 5388 5393 5399 5406 5411 5417 5428 5441 5458 5474 5489
5516 5506 5496 5486 5473 5461 5445 5429 5415 5402 5391 5385 5379 5371 5361 5354 5349 5347 5347 5348 5349 5349 5349 5349 5347 5349 5353 5359 5363 5370 5376 5382 5388 5394 5399 5404 5410 5419 5426 5436 5451 5468 5485
5504 5495 5484 5474 5462 5450 5434 5420 5407 5396 5385 5379 5374 5367 5359 5353 5348 5345 5345 5347 5349 5350 5349 5349 5348 5350 5353 5361 5367 5371 5377 5384 5387 5394 5399 5404 5409 5416 5423 5433 5446 5464 5483
5492 5482 5473 5463 5452 5437 5424 5411 5400 5391 5381 5376 5370 5363 5356 5350 5345 5343 5343 5344 5347 5349 5349 5349 5349 5351 5355 5361 5367 5371 5378 5384 5388 5396 5400 5404 5411 5417 5422 5428 5443 5462 5481
5481 5471 5461 5452 5441 5426 5412 5401 5392 5384 5377 5372 5365 5358 5351 5347 5342 5339 5339 5341 5344 5348 5349 5350 5350 5351 5355 5362 5368 5371 5378 5385 5391 5399 5401 5406 5412 5416 5422 5429 5446 5460 5480